Stations météo

réclame
Mon MeteoGroup
Edsbyn, Suède (2336): Température de l'air & dewpoint: 08.08.2018 08:00:00 - 14.08.2018 08:00:00 (CEST)Edsbyn, Suède (2336): Vitesse du vent: 08.08.2018 08:00:00 - 14.08.2018 08:00:00 (CEST)Edsbyn, Suède (2336): Direction du vent: 08.08.2018 08:00:00 - 14.08.2018 08:00:00 (CEST)Edsbyn, Suède (2336): reduced air pressure: 08.08.2018 08:00:00 - 14.08.2018 08:00:00 (CEST)Edsbyn, Suède (2336): visibility: 08.08.2018 08:00:00 - 14.08.2018 08:00:00 (CEST)
Date & Time tt [°C] td [°C] ff [km/h] ff [knt] dd ppp [hPa] vv [km]
14.08.2018 08:00:00 12,3 7,0 7 4 WNW 1010,7 40
14.08.2018 07:00:00 10,1 6,3 11 6 NW 1010,6 50
14.08.2018 06:00:00 8,1 6,7 7 4 NW 1010,7 35
14.08.2018 05:00:00 5,4 5,1 0 0 N 1010,5 0,9
14.08.2018 04:00:00 6,1 5,7 4 2 N 1010,5 50
14.08.2018 03:00:00 7,0 4,7 0 0 N 1010,3 50
14.08.2018 02:00:00 9,8 6,3 7 4 W 1009,9 50
14.08.2018 01:00:00 11,0 6,5 7 4 NW 1009,7 50
14.08.2018 00:00:00 11,2 6,7 7 4 NW 1009,5 50
13.08.2018 23:00:00 11,0 6,5 7 4 N 1009,4 50
13.08.2018 22:00:00 10,4 6,7 7 4 N 1009,1 50
13.08.2018 21:00:00 14,5 6,6 7 4 WNW 1008,7 50
13.08.2018 20:00:00 16,5 5,5 11 6 WNW 1008,0 45
13.08.2018 19:00:00 17,4 5,3 14 8 NW 1007,6 50
13.08.2018 18:00:00 18,2 5,1 14 8 NW 1007,3 45
13.08.2018 17:00:00 17,7 6,5 14 8 WNW 1007,5 45
13.08.2018 16:00:00 17,4 6,3 22 12 NNW 1007,4 50
13.08.2018 15:00:00 17,3 5,9 18 10 W 1007,2 45
13.08.2018 14:00:00 17,6 5,8 22 12 WNW 1007,0 50
13.08.2018 13:00:00 17,4 6,0 18 10 W 1006,5 50
13.08.2018 12:00:00 16,5 6,3 22 12 NW 1006,2 40
13.08.2018 11:00:00 15,4 6,9 18 10 NW 1006,2 50
13.08.2018 10:00:00 14,2 6,3 18 10 NW 1005,9 50
13.08.2018 09:00:00 14,0 6,1 22 12 WNW 1005,5 50
13.08.2018 08:00:00 13,8 6,4 25 14 WNW 1005,1 50
13.08.2018 07:00:00 13,7 7,9 18 10 WNW 1004,9 50
13.08.2018 06:00:00 11,9 7,0 11 6 WNW 1005,1 50
13.08.2018 05:00:00 11,1 6,6 7 4 WNW 1005,2 50
13.08.2018 04:00:00 11,8 6,9 7 4 W 1005,0 50
13.08.2018 03:00:00 11,7 6,6 11 6 W 1004,9 50
13.08.2018 02:00:00 11,6 6,7 7 4 WNW 1004,9 50
13.08.2018 01:00:00 12,1 6,6 11 6 W 1005,0 50
13.08.2018 00:00:00 12,6 6,4 11 6 WNW 1004,9 50
12.08.2018 23:00:00 13,2 6,5 14 8 WNW 1004,7 50
12.08.2018 22:00:00 14,0 6,1 11 6 WNW 1004,7 50
12.08.2018 21:00:00 15,3 6,6 14 8 W 1004,6 50
12.08.2018 20:00:00 16,6 6,1 14 8 WNW 1004,4 45
12.08.2018 19:00:00 17,3 5,6 11 6 WNW 1004,3 50
12.08.2018 18:00:00 17,1 5,1 14 8 WNW 1004,5 50
12.08.2018 17:00:00 18,1 5,3 18 10 WNW 1004,6 35
12.08.2018 16:00:00 18,2 5,7 18 10 WNW 1004,9 40
12.08.2018 15:00:00 17,5 5,7 22 12 WNW 1005,0 35
12.08.2018 14:00:00 17,4 6,3 18 10 WNW 1005,2 40
12.08.2018 13:00:00 16,9 7,8 4 2 S 1005,5 45
12.08.2018 12:00:00 15,3 7,8 4 2 WNW 1006,1 50
12.08.2018 11:00:00 14,0 9,0 4 2 WNW 1006,5 40
12.08.2018 10:00:00 12,1 9,7 7 4 W 1006,8 50
12.08.2018 09:00:00 11,6 9,2 7 4 NW 1007,3 45
12.08.2018 08:00:00 11,2 8,8 0 0 N 1007,7 50
12.08.2018 07:00:00 10,6 8,7 7 4 WNW 1007,9 40
12.08.2018 06:00:00 10,5 8,8 7 4 WNW 1008,1 20
12.08.2018 05:00:00 11,0 8,2 7 4 WNW 1008,5 45
12.08.2018 04:00:00 11,2 8,2 7 4 W 1008,8 40
12.08.2018 03:00:00 11,4 8,1 11 6 NNW 1009,3 22
12.08.2018 02:00:00 12,7 6,9 11 6 NW 1009,6 50
12.08.2018 01:00:00 12,8 7,5 18 10 NW 1010,1 50
12.08.2018 00:00:00 13,8 7,6 14 8 NW 1010,0 50
11.08.2018 23:00:00 14,0 8,0 14 8 NW 1010,4 50
11.08.2018 22:00:00 14,5 8,2 7 4 NW 1010,7 50
11.08.2018 21:00:00 16,2 9,1 4 2 NNW 1010,5 50
11.08.2018 20:00:00 18,4 6,9 11 6 NNW 1010,5 50
11.08.2018 19:00:00 19,6 5,6 14 8 NW 1010,5 50
11.08.2018 18:00:00 20,7 4,7 14 8 NW 1010,5 50
11.08.2018 17:00:00 21,1 5,0 14 8 WNW 1010,6 50
11.08.2018 16:00:00 20,8 4,4 18 10 W 1010,8 50
11.08.2018 15:00:00 20,9 5,7 14 8 W 1010,7 40
11.08.2018 14:00:00 20,3 6,3 14 8 W 1010,8 40
11.08.2018 13:00:00 19,8 5,4 18 10 WSW 1010,2 50
11.08.2018 12:00:00 19,3 5,7 14 8 WSW 1009,7 50
11.08.2018 11:00:00 18,9 6,7 18 10 W 1009,1 40
11.08.2018 10:00:00 18,6 7,4 18 10 WSW 1008,5 40
11.08.2018 09:00:00 17,6 8,2 22 12 WSW 1007,5 35
11.08.2018 08:00:00 17,4 8,8 18 10 WSW 1005,8 50
11.08.2018 07:00:00 17,0 9,2 18 10 WSW 1004,8 45
11.08.2018 06:00:00 16,5 8,5 18 10 SSW 1003,3 50
11.08.2018 05:00:00 15,8 6,8 22 12 S 1002,3 50
11.08.2018 04:00:00 16,1 6,0 22 12 S 1002,5 50
11.08.2018 03:00:00 16,5 6,3 25 14 SSW 1002,5 35
11.08.2018 02:00:00 16,3 9,0 22 12 SSE 1002,6 50
11.08.2018 01:00:00 16,6 9,3 18 10 SSE 1002,9 50
11.08.2018 00:00:00 17,7 8,8 22 12 S 1003,3 50
10.08.2018 23:00:00 18,2 9,3 18 10 S 1003,4 45
10.08.2018 22:00:00 19,4 10,4 22 12 S 1003,1 50
10.08.2018 21:00:00 20,2 10,9 14 8 S 1003,0 50
10.08.2018 20:00:00 22,2 13,3 18 10 SSW 1002,3 45
10.08.2018 19:00:00 21,3 19,9 14 8 SE 1002,0 27
10.08.2018 18:00:00 21,5 20,1 18 10 SE 1002,3 16
10.08.2018 17:00:00 22,2 20,1 18 10 SE 1002,8 28
10.08.2018 16:00:00 22,5 20,0 22 12 SE 1003,3 22
10.08.2018 15:00:00 21,2 20,2 22 12 SE 1004,1 17
10.08.2018 14:00:00 20,5 19,5 18 10 ESE 1004,9 17
10.08.2018 13:00:00 19,0 18,7 18 10 ESE 1005,8 10
10.08.2018 12:00:00 19,9 18,9 18 10 E 1006,6 10
10.08.2018 11:00:00 21,3 17,3 7 4 ESE 1008,1 23
10.08.2018 10:00:00 20,6 16,2 7 4 E 1009,0 40
10.08.2018 09:00:00 18,7 15,9 0 0 N 1009,5 35
10.08.2018 08:00:00 17,7 15,5 4 2 NW 1010,0 26
10.08.2018 07:00:00 15,4 14,4 4 2 NW 1010,5 17
10.08.2018 06:00:00 14,6 14,1 4 2 WNW 1010,7 14
10.08.2018 05:00:00 14,4 13,9 7 4 NW 1011,1 3,5
10.08.2018 04:00:00 14,8 14,3 11 6 NW 1011,3 6
10.08.2018 03:00:00 15,5 14,9 7 4 NW 1011,8 7
10.08.2018 02:00:00 15,1 14,8 0 0 N 1011,5 12
10.08.2018 01:00:00 16,3 16,0 7 4 NNW 1011,8 3,5
10.08.2018 00:00:00 17,1 16,8 4 2 NW 1011,7 0,2
09.08.2018 23:00:00 18,0 17,5 4 2 NNW 1011,5 13
09.08.2018 22:00:00 18,6 17,4 0 0 N 1011,6 21
09.08.2018 21:00:00 20,7 17,1 4 2 ESE 1011,4 30
09.08.2018 20:00:00 23,3 17,7 11 6 SE 1011,2 45
09.08.2018 19:00:00 24,1 17,6 18 10 SE 1010,6 35
09.08.2018 18:00:00 24,4 17,4 22 12 SE 1010,7 30
09.08.2018 17:00:00 25,1 17,3 25 14 SE 1010,5 35
09.08.2018 16:00:00 25,8 18,0 22 12 SE 1010,5 35
09.08.2018 15:00:00 26,4 16,9 18 10 SE 1010,3 30
09.08.2018 14:00:00 26,1 15,8 14 8 SE 1010,3 35
09.08.2018 13:00:00 25,5 15,8 4 2 SSW 1010,1 40
09.08.2018 12:00:00 25,2 15,8 11 6 S 1009,7 35
09.08.2018 11:00:00 23,6 16,9 11 6 S 1009,7 24
09.08.2018 10:00:00 23,1 17,6 11 6 SE 1009,2 30
09.08.2018 09:00:00 21,3 17,9 11 6 SE 1009,0 40
09.08.2018 08:00:00 19,8 17,4 11 6 ESE 1008,4 40
09.08.2018 07:00:00 19,5 18,0 11 6 SE 1008,3 27
09.08.2018 06:00:00 18,7 18,0 7 4 ESE 1007,8 13
09.08.2018 05:00:00 18,7 17,9 11 6 SE 1007,7 30
09.08.2018 04:00:00 19,1 18,4 11 6 ESE 1007,5 27
09.08.2018 03:00:00 18,4 18,1 0 0 N 1006,7 6
09.08.2018 02:00:00 18,6 18,3 4 2 NNW 1007,3 10
09.08.2018 01:00:00 18,0 17,7 4 2 SSE 1007,9 13
09.08.2018 00:00:00 18,2 17,6 4 2 SE 1008,0 19
08.08.2018 23:00:00 18,2 17,9 0 0 N 1008,1 19
08.08.2018 22:00:00 19,2 18,2 7 4 ESE 1008,4 22
08.08.2018 21:00:00 19,9 19,1 11 6 SE 1009,2 12
08.08.2018 20:00:00 20,4 18,3 11 6 E 1008,4 40
08.08.2018 19:00:00 20,5 19,2 11 6 E 1009,4 24
08.08.2018 18:00:00 21,3 18,7 14 8 ESE 1009,9 35
08.08.2018 17:00:00 21,6 18,6 22 12 SE 1010,1 40
08.08.2018 16:00:00 21,9 18,3 18 10 SE 1010,6 50
08.08.2018 15:00:00 23,2 17,6 25 14 SE 1011,0 35
08.08.2018 14:00:00 23,9 16,9 29 16 SE 1011,3 40
08.08.2018 13:00:00 24,0 15,8 25 14 SE 1011,4 45
08.08.2018 12:00:00 23,6 15,4 18 10 SE 1011,6 50
08.08.2018 11:00:00 21,0 15,1 14 8 SE 1012,3 50
08.08.2018 10:00:00 20,5 14,4 4 2 NE 1012,1 45
08.08.2018 09:00:00 18,0 14,3 4 2 S 1012,2 45
08.08.2018 08:00:00 14,8 12,5 4 2 NW 1012,3 50

tt = Température de l'air
td = dewpoint
ff = Vitesse du vent
dd = Direction du vent
ppp = reduced air pressure
vv = visibility

stations d'obs. à proximité